This is the latest recevied weather packets stored in our database for station/object KQ4WWD. If no packets are shown the sender has not sent any weather packets the latest 10 day(s).
| Time | Temp. | Humidity | Pressure | Rain* | Wind** | Luminosity | Snow |
|---|---|---|---|---|---|---|---|
| 1777056463 | 28.89° C | 47% | 1012 hPa | 0 mm | - | 218 W/m² | - |
| 1777056158 | 29.44° C | 48% | 1012.4 hPa | 0 mm | - | 728 W/m² | - |
| 1777055855 | 30° C | 47% | 1012.4 hPa | 0 mm | - | 755 W/m² | - |
| 1777055552 | 30° C | 48% | 1012.6 hPa | 0 mm | - | 779 W/m² | - |
| 1777055252 | 29.44° C | 46% | 1012.4 hPa | 0 mm | - | 780 W/m² | - |
| 1777054951 | 29.44° C | 48% | 1012.7 hPa | 0 mm | - | 793 W/m² | - |
| 1777054648 | 30.56° C | 46% | 1012.5 hPa | 0 mm | - | 780 W/m² | - |
| 1777054344 | 30.56° C | 46% | 1012.8 hPa | 0 mm | - | 811 W/m² | - |
| 1777054044 | 30° C | 45% | 1012.8 hPa | 0 mm | - | 806 W/m² | - |
| 1777053744 | 30° C | 49% | 1012.7 hPa | 0 mm | - | 799 W/m² | - |
| 1777053443 | 29.44° C | 50% | 1012.7 hPa | 0 mm | - | 819 W/m² | - |
| 1777053139 | 28.89° C | 48% | 1012.9 hPa | 0 mm | - | 808 W/m² | - |
| 1777052836 | 28.89° C | 50% | 1013 hPa | 0 mm | - | 794 W/m² | - |
| 1777052536 | 28.89° C | 52% | 1012.9 hPa | 0 mm | - | 789 W/m² | - |
| 1777052232 | 28.89° C | 52% | 1013.1 hPa | 0 mm | - | 771 W/m² | - |
| 1777051927 | 28.89° C | 51% | 1013.1 hPa | 0 mm | - | 823 W/m² | - |
| 1777051625 | 28.89° C | 52% | 1013 hPa | 0 mm | - | 799 W/m² | - |
| 1777051321 | 29.44° C | 51% | 1013.2 hPa | 0 mm | - | 841 W/m² | - |
| 1777051016 | 29.44° C | 53% | 1013.2 hPa | 0 mm | - | 799 W/m² | - |
| 1777050712 | 28.89° C | 53% | 1013.4 hPa | 0 mm | - | 799 W/m² | - |
| 1777050407 | 30° C | 51% | 1013.2 hPa | 0 mm | - | 220 W/m² | - |
| 1777050103 | 28.89° C | 54% | 1013.5 hPa | 0 mm | - | 819 W/m² | - |
| 1777049797 | 28.33° C | 54% | 1013.5 hPa | 0 mm | - | 787 W/m² | - |
| 1777049494 | 27.78° C | 56% | 1013.4 hPa | 0 mm | - | 769 W/m² | - |
| 1777049192 | 27.78° C | 56% | 1013.7 hPa | 0 mm | - | 423 W/m² | - |
* Rain latest hour (hover to see other rain measurements)
** Current wind speed in m/s (hover to see current wind gust speed)